Plattsburgh, NY

12:35 AM EST on December 14, 2019 (GMT -0500)
Plattsburgh International

Weather History for KPBG - October, 2019

Change the Weather History Date:

Tuesday, October 1, 2019

  Actual Average Record
Temperature  
Mean Temperature 64 °F 53 °F  
Max Temperature 73 °F 63 °F 83 °F (1968)
Min Temperature 54 °F 43 °F 27 °F (1993)
Degree Days  
Heating Degree Days 2 12  
Month to date heating degree days 12  
Since 1 July heating degree days 247  
Cooling Degree Days 0 0  
Month to date cooling degree days 0  
Year to date cooling degree days 345  
Growing Degree Days 14 (Base 50)    
Moisture  
Dew Point 59 °F    
Average Humidity 90    
Maximum Humidity 97    
Minimum Humidity 84    
Precipitation  
Precipitation 0.69 in - 1.29 in (1977)
Month to date precipitation  
Year to date precipitation  
Sea Level Pressure  
Sea Level Pressure 29.89 in    
Wind  
Wind Speed 3 mph ()    
Max Wind Speed 12 mph    
Max Gust Speed -    
Visibility 8.5 miles    
Events Rain , Thunderstorm    
T = Trace of Precipitation, MM = Missing Value Source: Averaged Metar Reports

Daily Weather History Graph

Daily Weather History Graph

Search for Another Location

Airport or City:

Astronomy

Oct. 01, 2019 Rise Set
Actual Time 6:51 AM EDT 6:34 PM EDT
Civil Twilight 6:22 AM EDT 7:03 PM EDT
Nautical Twilight 5:48 AM EDT 7:37 PM EDT
Astronomical Twilight 5:14 AM EDT 8:12 PM EDT
Moon 10:11 AM EDT (10/1) 8:38 PM EDT (10/1)
Length of Visible Light 12h 41m
Length of Day
11h 43m
Waxing Crescent, 12% of the Moon is Illuminated
Oct 1
Waxing Crescent
Oct 5
First Quarter
Oct 13
Full
Oct 21
Last Quarter
Oct 27
New

Hourly Weather History & Observations

Time (EDT) Temp. Dew Point Humidity Pressure Visibility Wind Dir Wind Speed Gust Speed Precip Events Conditions
12:53 AM 55.0 °F 52.0 °F 89% 30.07 in 8.0 mi Calm Calm - 0.00 in Rain Light Rain
1:53 AM 54.0 °F 52.0 °F 93% 30.05 in 8.0 mi Variable 3.5 mph - 0.03 in Rain Light Rain
2:18 AM 55.0 °F 53.1 °F 93% 30.06 in 9.0 mi Calm Calm - 0.02 in Rain Light Rain
2:53 AM 55.0 °F 53.1 °F 93% 30.06 in 6.0 mi Calm Calm - 0.03 in Rain Light Rain
3:53 AM 54.0 °F 53.1 °F 97% 30.04 in 6.0 mi Calm Calm - 0.01 in Rain Light Rain
4:11 AM 54.0 °F 52.0 °F 93% 30.03 in 9.0 mi Calm Calm - 0.00 in   Overcast
4:53 AM 54.0 °F 52.0 °F 93% 30.03 in 5.0 mi Calm Calm - 0.00 in   Overcast
5:05 AM 54.0 °F 52.0 °F 93% 30.02 in 6.0 mi Calm Calm - N/A   Overcast
5:11 AM 54.0 °F 52.0 °F 93% 30.02 in 7.0 mi Calm Calm - N/A   Overcast
5:27 AM 54.0 °F 53.1 °F 97% 30.01 in 10.0 mi Calm Calm - N/A   Overcast
5:53 AM 55.0 °F 53.1 °F 93% 30.02 in 10.0 mi Calm Calm - N/A   Overcast
6:36 AM 55.0 °F 53.1 °F 93% 30.00 in 10.0 mi Calm Calm - N/A   Overcast
6:53 AM 55.0 °F 53.1 °F 93% 30.01 in 10.0 mi Calm Calm - N/A   Overcast
7:09 AM 55.0 °F 53.1 °F 93% 30.00 in 10.0 mi Calm Calm - N/A   Overcast
7:53 AM 55.9 °F 54.0 °F 93% 30.00 in 10.0 mi SW 3.5 mph - 0.01 in Rain Light Rain
8:10 AM 55.9 °F 54.0 °F 93% 29.97 in 5.0 mi SE 3.5 mph - 0.01 in Rain Light Rain
8:18 AM 57.0 °F 55.0 °F 93% 29.99 in 10.0 mi Calm Calm - 0.01 in   Overcast
8:49 AM 57.2 °F 55.4 °F 94% 29.98 in 10.0 mi WSW 4.6 mph - 0.01 in   Overcast
8:53 AM 57.0 °F 55.0 °F 93% 29.99 in 10.0 mi West 4.6 mph - 0.01 in   Overcast
9:37 AM 59.0 °F 55.9 °F 90% 29.96 in 10.0 mi SSW 3.5 mph - N/A   Overcast
9:53 AM 60.1 °F 57.0 °F 90% 29.96 in 10.0 mi SSE 5.8 mph - N/A   Overcast
10:29 AM 62.1 °F 57.9 °F 86% 29.94 in 10.0 mi Variable 3.5 mph - N/A   Overcast
10:53 AM 62.1 °F 59.0 °F 90% 29.93 in 10.0 mi South 4.6 mph - N/A   Overcast
11:07 AM 63.0 °F 59.0 °F 87% 29.92 in 10.0 mi SSE 5.8 mph - N/A   Overcast
11:43 AM 63.0 °F 59.0 °F 87% 29.91 in 10.0 mi SSE 6.9 mph - N/A   Overcast
11:51 AM 62.6 °F 59.0 °F 88% 29.91 in 10.0 mi South 5.8 mph - N/A   Overcast
11:53 AM 63.0 °F 59.0 °F 87% 29.91 in 10.0 mi SSE 5.8 mph - N/A   Overcast
12:53 PM 64.0 °F 60.1 °F 87% 29.89 in 10.0 mi South 8.1 mph - N/A   Overcast
1:53 PM 64.0 °F 60.1 °F 87% 29.84 in 10.0 mi South 11.5 mph - 0.00 in   Overcast
2:53 PM 64.9 °F 60.1 °F 84% 29.82 in 10.0 mi South 9.2 mph - N/A   Overcast
3:26 PM 64.9 °F 61.0 °F 87% 29.80 in 10.0 mi SSE 6.9 mph - 0.00 in Rain Light Rain
3:34 PM 64.9 °F 61.0 °F 87% 29.80 in 9.0 mi South 5.8 mph - 0.01 in Rain , Thunderstorm Light Thunderstorms and Rain
3:49 PM 66.2 °F 62.6 °F 88% 29.79 in 10.0 mi South 6.9 mph - 0.01 in Thunderstorm Mostly Cloudy
3:53 PM 68.0 °F 63.0 °F 84% 29.79 in 10.0 mi South 10.4 mph - 0.01 in Thunderstorm Mostly Cloudy
4:18 PM 66.9 °F 62.1 °F 84% 29.78 in 10.0 mi South 6.9 mph - 0.00 in Rain , Thunderstorm Light Thunderstorms and Rain
4:30 PM 64.9 °F 62.1 °F 90% 29.77 in 2.0 mi SSE 10.4 mph - 0.08 in Rain , Thunderstorm Heavy Thunderstorms and Rain
4:37 PM 64.9 °F 63.0 °F 93% 29.77 in 3.0 mi SSE 9.2 mph - 0.11 in Rain , Thunderstorm Heavy Rain
4:48 PM 66.2 °F 62.6 °F 88% 29.77 in 10.0 mi SSE 10.4 mph - 0.11 in   Mostly Cloudy
4:53 PM 66.0 °F 62.1 °F 87% 29.77 in 10.0 mi SSE 10.4 mph - 0.11 in   Mostly Cloudy
5:53 PM 66.0 °F 62.1 °F 87% 29.75 in 10.0 mi SSE 10.4 mph - 0.00 in Rain Light Rain
6:53 PM 64.9 °F 63.0 °F 93% 29.74 in 10.0 mi NNW 5.8 mph - 0.00 in Rain Light Rain
7:24 PM 66.0 °F 63.0 °F 90% 29.74 in 10.0 mi Calm Calm - 0.02 in Rain , Thunderstorm Light Rain
7:42 PM 66.0 °F 64.0 °F 93% 29.75 in 1.8 mi Variable 6.9 mph - 0.27 in Rain , Thunderstorm Heavy Rain
7:53 PM 66.9 °F 64.9 °F 93% 29.73 in 2.5 mi South 3.5 mph - 0.39 in Rain , Thunderstorm Heavy Rain
8:02 PM 66.9 °F 64.9 °F 93% 29.73 in 3.0 mi Calm Calm - 0.04 in Rain Rain
8:53 PM 68.0 °F 64.9 °F 90% 29.73 in 10.0 mi SSW 4.6 mph - 0.06 in Rain Light Rain
9:53 PM 73.0 °F 69.1 °F 87% 29.72 in 10.0 mi Calm Calm - 0.02 in   Mostly Cloudy
10:53 PM 73.0 °F 68.0 °F 84% 29.71 in 10.0 mi Variable 3.5 mph - 0.00 in   Mostly Cloudy
11:53 PM 68.0 °F 64.9 °F 90% 29.73 in 8.0 mi North 11.5 mph - 0.01 in Rain Light Rain
11:57 PM 66.9 °F 64.9 °F 93% 29.73 in 9.0 mi North 6.9 mph - 0.00 in Rain Light Rain